CAPE
0 0 0 0 0 1 2 6 0 0 1 71 50 194 207 267 233 151 179 175 304 363 327 290 235 160 14 0 0 0 0 0 0 0 2 9 21 19
0 0 0 0 0 0 7 19 3 0 1 21 31 117 229 235 215 166 184 153 220 220 200 142 215 208 136 20 0 0 0 0 0 0 0 0 2 10
0 0 0 0 0 0 0 2 13 0 12 1 7 40 159 385 330 195 163 156 168 232 201 206 108 89 167 134 34 0 0 0 0 0 0 0 0 0
0 0 0 0 0 0 0 0 0 0 0 0 0 0 60 109 267 258 163 138 169 161 185 219 197 102 45 144 141 65 0 0 0 0 0 0 0 0
0 0 0 0 0 0 0 0 0 5 0 0 0 7 8 28 78 228 320 212 122 109 123 211 232 262 173 69 127 148 100 37 8 6 2 0 0 0
0 0 0 0 0 0 0 0 0 6 1 0 3 31 13 7 33 23 17 105 349 163 118 129 160 221 260 216 49 55 115 117 90 48 11 0 0 0
0 0 0 0 0 0 0 0 0 0 9 8 16 24 14 0 0 0 0 29 106 343 65 382 156 138 154 194 131 3 1 28 84 116 87 23 0 0
0 0 0 0 0 0 0 0 0 0 2 14 1 11 27 16 0 0 0 0 0 101 329 122 233 108 155 212 258 188 104 44 32 62 130 128 62 5
0 0 0 0 0 0 0 0 0 0 0 4 1 4 2 5 9 4 1 2 7 14 73 158 217 133 163 221 332 252 169 114 93 120 163 108 110 88
0 0 0 0 0 0 0 0 0 0 0 4 14 12 0 14 10 4 6 1 2 3 3 58 112 26 123 155 212 320 312 329 353 341 275 269 197 97
0 0 0 0 0 0 0 0 0 0 0 0 1 1 11 7 0 2 5 0 0 0 3 14 35 66 45 68 77 124 241 320 399 462 442 394 346 227
0 0 0 0 0 0 0 0 0 0 0 0 0 0 0 5 1 0 0 0 0 0 1 3 17 60 61 34 83 98 132 394 467 593 475 320 371 325
0 0 0 0 0 0 0 0 0 0 1 3 0 0 8 0 0 1 13 24 0 0 0 1 1 0 26 81 31 62 85 152 448 489 404 343 208 209
0 0 0 0 0 0 0 0 0 0 0 1 0 0 0 1 4 10 17 2 18 0 2 25 0 0 0 19 34 91 143 155 283 466 442 436 376 290
0 0 0 0 0 0 0 0 0 0 0 0 0 0 3 2 2 14 7 9 2 8 2 14 0 0 3 1 18 99 122 157 198 197 255 308 282 224
0 0 0 0 0 0 0 0 0 0 0 0 0 0 0 0 0 5 10 8 4 13 2 2 2 5 2 7 1 30 75 86 136 176 244 284 249 175
0 0 0 0 0 0 0 0 0 0 0 0 0 0 0 0 0 0 1 2 14 10 3 3 0 1 7 1 0 0 10 35 88 115 87 115 169 191
0 0 0 0 0 0 0 0 0 0 0 0 0 0 0 0 0 0 0 0 1 4 3 0 0 0 0 0 0 0 0 0 23 55 96 121 75 107
0 0 0 0 0 0 0 0 0 0 0 0 0 0 0 0 0 0 0 0 0 0 0 0 0 0 0 0 0 1 0 0 1 26 18 2 46 64
0 0 0 0 0 0 0 0 0 0 0 0 0 0 0 0 0 0 0 0 0 0 0 0 0 0 0 0 0 0 0 0 0 0 0 0 0 0
0 0 0 0 0 0 0 0 0 0 0 0 0 0 0 0 0 0 0 0 0 0 0 0 0 0 0 0 0 0 0 0 0 0 0 0 0 0
0 0 0 0 0 0 0 0 0 0 0 0 0 0 0 0 0 0 0 0 0 0 0 0 0 0 0 0 1 0 0 0 2 0 0 0 0 3
0 0 0 0 0 0 0 0 0 0 0 0 0 0 0 0 0 0 0 0 0 0 0 0 0 0 0 0 0 0 0 2 3 2 2 4 3 3
CIN
0 0 0 0 0 0 0 0 0 0 0 -1 -15 -14 -4 0 -1 -26 -19 -38 -46 -24 -24 -31 -40 -34 -87 0 0 0 0 0 0 -7 -4 -4 -6 -4
0 0 0 0 0 0 -1 0 0 0 0 0 -1 -15 -14 -4 -12 -17 -13 -49 -54 -36 -32 -46 -46 -40 -33 -84 0 0 0 0 0 0 0 0 -8 -10
0 0 0 0 0 0 0 -2 0 0 0 0 -6 -1 -9 -1 -3 -16 -28 -27 -28 -33 -13 -28 -63 -85 -41 -27 -65 0 0 0 0 0 0 0 0 0
0 0 0 0 0 0 0 0 0 0 0 0 0 0 -1 -8 -1 -1 -22 -7 -17 -46 -34 -17 -19 -55 -102 -44 -27 -62 -11 0 0 0 0 0 0 0
0 0 0 0 0 0 0 0 0 0 0 0 0 -2 0 0 0 0 0 -4 -37 -81 -59 -36 -21 -17 -32 -98 -53 -37 -58 -147 -264 -341 -406 0 0 0
0 0 0 0 0 0 0 0 0 0 0 0 0 -1 0 0 0 -5 -58 -26 -1 -14 -57 -53 -36 -30 -20 -22 -84 -67 -38 -45 -89 -179 -298 0 0 0
0 0 0 0 0 0 0 0 0 0 0 0 0 -1 0 0 0 0 0 -26 -1 0 -57 -10 -39 -47 -33 -19 -26 -16 -24 -104 -83 -88 -123 -210 0 0
0 0 0 0 0 0 0 0 0 0 0 0 0 0 0 0 0 0 0 0 0 -13 0 -28 -26 -84 -69 -33 -42 -88 -108 -165 -170 -159 -110 -113 -156 -246
0 0 0 0 0 0 0 0 0 0 0 0 -1 -3 0 -1 0 0 0 0 0 0 -5 -11 -7 -45 -64 -65 -45 -76 -108 -119 -125 -86 -79 -115 -124 -138
0 0 0 0 0 0 0 0 0 0 0 -1 0 0 0 0 0 -4 0 0 0 0 -4 -17 -15 -57 -51 -59 -62 -39 -48 -49 -41 -42 -53 -54 -91 -144
0 0 0 0 0 0 0 0 0 0 0 0 0 -1 0 0 -1 0 0 0 0 0 0 0 -2 -10 -39 -45 -81 -77 -46 -29 -21 -14 -19 -30 -56 -84
0 0 0 0 0 0 0 0 0 0 0 0 0 0 0 0 -11 0 0 0 0 -1 -1 0 0 -1 -8 -82 -59 -69 -66 -29 -16 -8 -9 -17 -26 -21
0 0 0 0 0 0 0 0 0 0 -1 0 0 0 0 -1 0 0 0 0 0 0 0 0 0 0 -14 -13 -92 -72 -81 -67 -14 -9 -8 -13 -28 -31
0 0 0 0 0 0 0 0 0 0 0 -1 0 0 0 0 0 -1 -3 0 0 0 0 0 0 -2 0 -3 -20 -26 -28 -52 -18 -7 -5 -3 -3 -7
0 0 0 0 0 0 0 0 0 0 0 0 0 0 -1 0 -1 0 0 -3 0 0 0 0 0 0 0 0 -2 0 -2 -4 -7 -14 -13 -5 -2 -15
0 0 0 0 0 0 0 0 0 0 0 0 0 0 0 0 0 -1 0 0 -7 0 0 0 0 0 0 0 -2 0 0 0 0 -1 -1 0 -1 -4
0 0 0 0 0 0 0 0 0 0 0 0 0 0 0 0 0 0 -20 -5 -1 0 0 0 0 0 0 0 0 0 -1 -4 0 0 0 0 0 0
0 0 0 0 0 0 0 0 0 0 0 0 0 0 0 0 0 0 0 0 -4 -1 -1 0 0 0 0 0 0 0 0 0 -8 -4 0 0 0 0
0 0 0 0 0 0 0 0 0 0 0 0 0 0 0 0 0 0 0 0 0 0 0 0 0 0 0 0 0 0 0 0 0 0 -1 -5 0 0
0 0 0 0 0 0 0 0 0 0 0 0 0 0 0 0 0 0 0 0 0 0 0 0 0 0 0 0 0 0 0 0 0 0 0 0 0 0
0 0 0 0 0 0 0 0 0 0 0 0 0 0 0 0 0 0 0 0 0 0 0 0 0 0 0 0 0 0 0 0 0 0 0 0 0 0
0 0 0 0 0 0 0 0 0 0 0 0 0 0 0 0 0 0 0 0 0 0 0 0 0 0 0 0 0 0 0 0 0 0 0 0 0 -4
0 0 0 0 0 0 0 0 0 0 0 0 0 0 0 0 0 0 0 0 0 0 0 0 0 0 0 0 0 0 0 0 0 0 0 0 0 0
Wind_Speed
nan nan nan nan nan nan nan nan nan nan nan nan nan 48 39 42 41 36 43 33 28 26 28 28 26 26 nan nan nan nan nan nan nan nan nan nan nan nan
nan nan nan nan nan nan nan nan nan nan nan nan nan 48 46 43 48 47 41 42 33 29 28 31 29 27 26 nan nan nan nan nan nan nan nan nan nan nan
nan nan nan nan nan nan nan nan nan nan nan nan nan nan 41 43 49 49 47 52 48 37 32 32 32 nan 29 28 nan nan nan nan nan nan nan nan nan nan
nan nan nan nan nan nan nan nan nan nan nan nan nan nan nan 46 45 47 57 54 55 45 36 34 33 33 nan 31 30 nan nan nan nan nan nan nan nan nan
nan nan nan nan nan nan nan nan nan nan nan nan nan nan nan nan nan 51 58 59 57 51 39 37 35 33 34 nan 32 31 29 nan nan nan nan nan nan nan
nan nan nan nan nan nan nan nan nan nan nan nan nan nan nan nan nan nan nan 63 62 58 54 45 40 38 37 38 nan nan 32 30 nan nan nan nan nan nan
nan nan nan nan nan nan nan nan nan nan nan nan nan nan nan nan nan nan nan nan 67 66 nan 58 54 51 51 48 40 nan nan nan nan 26 nan nan nan nan
nan nan nan nan nan nan nan nan nan nan nan nan nan nan nan nan nan nan nan nan nan 63 64 58 58 54 53 51 38 37 33 nan nan nan 28 26 nan nan
nan nan nan nan nan nan nan nan nan nan nan nan nan nan nan nan nan nan nan nan nan nan nan 64 64 56 55 52 46 41 37 33 nan 33 32 29 28 nan
nan nan nan nan nan nan nan nan nan nan nan nan nan nan nan nan nan nan nan nan nan nan nan nan 74 nan 60 54 49 44 40 40 37 36 34 32 31 nan
nan nan nan nan nan nan nan nan nan nan nan nan nan nan nan nan nan nan nan nan nan nan nan nan nan nan nan nan nan 48 47 44 43 39 35 34 34 36
nan nan nan nan nan nan nan nan nan nan nan nan nan nan nan nan nan nan nan nan nan nan nan nan nan nan nan nan nan nan 57 51 45 43 42 40 43 49
nan nan nan nan nan nan nan nan nan nan nan nan nan nan nan nan nan nan nan nan nan nan nan nan nan nan nan nan nan nan nan 63 57 55 49 47 50 47
nan nan nan nan nan nan nan nan nan nan nan nan nan nan nan nan nan nan nan nan nan nan nan nan nan nan nan nan nan nan 69 68 66 60 59 57 55 50
nan nan nan nan nan nan nan nan nan nan nan nan nan nan nan nan nan nan nan nan nan nan nan nan nan nan nan nan nan nan 75 72 70 68 67 65 64 62
nan nan nan nan nan nan nan nan nan nan nan nan nan nan nan nan nan nan nan nan nan nan nan nan nan nan nan nan nan nan nan nan 76 71 70 71 70 67
nan nan nan nan nan nan nan nan nan nan nan nan nan nan nan nan nan nan nan nan nan nan nan nan nan nan nan nan nan nan nan nan nan 72 nan 72 72 70
nan nan nan nan nan nan nan nan nan nan nan nan nan nan nan nan nan nan nan nan nan nan nan nan nan nan nan nan nan nan nan nan nan nan nan 69 nan 75
nan nan nan nan nan nan nan nan nan nan nan nan nan nan nan nan nan nan nan nan nan nan nan nan nan nan nan nan nan nan nan nan nan nan nan nan nan nan
nan nan nan nan nan nan nan nan nan nan nan nan nan nan nan nan nan nan nan nan nan nan nan nan nan nan nan nan nan nan nan nan nan nan nan nan nan nan
nan nan nan nan nan nan nan nan nan nan nan nan nan nan nan nan nan nan nan nan nan nan nan nan nan nan nan nan nan nan nan nan nan nan nan nan nan nan
nan nan nan nan nan nan nan nan nan nan nan nan nan nan nan nan nan nan nan nan nan nan nan nan nan nan nan nan nan nan nan nan nan nan nan nan nan nan
nan nan nan nan nan nan nan nan nan nan nan nan nan nan nan nan nan nan nan nan nan nan nan nan nan nan nan nan nan nan nan nan nan nan nan nan nan nan
Wind_Direction
nan nan nan nan nan nan nan nan nan nan nan nan nan 222 228 211 196 210 210 213 222 228 223 221 219 218 nan nan nan nan nan nan nan nan nan nan nan nan
nan nan nan nan nan nan nan nan nan nan nan nan nan 204 217 225 211 207 213 219 220 225 228 226 219 217 218 nan nan nan nan nan nan nan nan nan nan nan
nan nan nan nan nan nan nan nan nan nan nan nan nan nan 210 227 221 215 214 210 211 220 220 230 224 nan 220 221 nan nan nan nan nan nan nan nan nan nan
nan nan nan nan nan nan nan nan nan nan nan nan nan nan nan 216 226 225 216 215 218 216 221 221 227 224 nan 227 227 nan nan nan nan nan nan nan nan nan
nan nan nan nan nan nan nan nan nan nan nan nan nan nan nan nan nan 218 214 220 216 220 220 222 223 227 228 nan 231 231 232 nan nan nan nan nan nan nan
nan nan nan nan nan nan nan nan nan nan nan nan nan nan nan nan nan nan nan 222 213 218 220 219 222 222 226 230 nan nan 233 236 nan nan nan nan nan nan
nan nan nan nan nan nan nan nan nan nan nan nan nan nan nan nan nan nan nan nan 216 217 nan 219 223 223 224 225 224 nan nan nan nan 247 nan nan nan nan
nan nan nan nan nan nan nan nan nan nan nan nan nan nan nan nan nan nan nan nan nan 223 223 219 226 227 228 229 236 233 240 nan nan nan 255 262 nan nan
nan nan nan nan nan nan nan nan nan nan nan nan nan nan nan nan nan nan nan nan nan nan nan 225 225 225 233 232 240 245 242 245 nan 250 251 255 261 nan
nan nan nan nan nan nan nan nan nan nan nan nan nan nan nan nan nan nan nan nan nan nan nan nan 224 nan 228 231 244 247 247 247 250 253 257 260 264 nan
nan nan nan nan nan nan nan nan nan nan nan nan nan nan nan nan nan nan nan nan nan nan nan nan nan nan nan nan nan 246 248 248 251 253 257 261 262 262
nan nan nan nan nan nan nan nan nan nan nan nan nan nan nan nan nan nan nan nan nan nan nan nan nan nan nan nan nan nan 237 242 248 252 254 256 258 253
nan nan nan nan nan nan nan nan nan nan nan nan nan nan nan nan nan nan nan nan nan nan nan nan nan nan nan nan nan nan nan 240 242 243 248 253 259 263
nan nan nan nan nan nan nan nan nan nan nan nan nan nan nan nan nan nan nan nan nan nan nan nan nan nan nan nan nan nan 231 238 242 242 244 246 252 259
nan nan nan nan nan nan nan nan nan nan nan nan nan nan nan nan nan nan nan nan nan nan nan nan nan nan nan nan nan nan 234 234 237 241 242 245 249 250
nan nan nan nan nan nan nan nan nan nan nan nan nan nan nan nan nan nan nan nan nan nan nan nan nan nan nan nan nan nan nan nan 238 237 241 244 247 250
nan nan nan nan nan nan nan nan nan nan nan nan nan nan nan nan nan nan nan nan nan nan nan nan nan nan nan nan nan nan nan nan nan 237 nan 240 243 249
nan nan nan nan nan nan nan nan nan nan nan nan nan nan nan nan nan nan nan nan nan nan nan nan nan nan nan nan nan nan nan nan nan nan nan 241 nan 244
nan nan nan nan nan nan nan nan nan nan nan nan nan nan nan nan nan nan nan nan nan nan nan nan nan nan nan nan nan nan nan nan nan nan nan nan nan nan
nan nan nan nan nan nan nan nan nan nan nan nan nan nan nan nan nan nan nan nan nan nan nan nan nan nan nan nan nan nan nan nan nan nan nan nan nan nan
nan nan nan nan nan nan nan nan nan nan nan nan nan nan nan nan nan nan nan nan nan nan nan nan nan nan nan nan nan nan nan nan nan nan nan nan nan nan
nan nan nan nan nan nan nan nan nan nan nan nan nan nan nan nan nan nan nan nan nan nan nan nan nan nan nan nan nan nan nan nan nan nan nan nan nan nan
nan nan nan nan nan nan nan nan nan nan nan nan nan nan nan nan nan nan nan nan nan nan nan nan nan nan nan nan nan nan nan nan nan nan nan nan nan nan